sat.trackr.live / text

‹ back to catalog

DROR 1

NORAD 64784 · 2025-148A

PAYLOAD ACTIVE UNKNOWN

§ Identity

Operator
Country
ISRA
Launch date
2025-07-13
Launch site
AFETR
Launch vehicle
Mass (kg)
RCS (m²)

Purposes: comms

External: N2YO · Heavens-Above · Gunter

§ Orbital elements

Epoch: 2026-05-25T03:43:24.877056Z

Period
1,436.09 min
Inclination
0.0478°
Eccentricity
0.0003116
Mean motion
1.00272215 rev/d
Perigee alt
35,773.3 km
Apogee alt
35,799.6 km
Semi-major
42,164.6 km
B*
0.0000e+0
RAAN
85.0574°
Arg perigee
298.1324°
Mean anomaly
271.4065°
Rev number
306

§ Raw data

DROR 11 64784U 25148A   26145.15514904 -.00000036  00000+0  00000+0 0  99942 64784   0.0478  85.0574 0003116 298.1324 271.4065  1.00272215  3063

JSON: /api/v1/satellites/64784 · /tle

For live sub-satellite position, see the globe view (requires WebGL).

§ Visibility from observer

Set your observer location to see the next 7 days of passes ≥ 10°. The values pass through the URL so the page stays shareable.

No JS? Fill the form by hand. The geolocation button needs JavaScript.